Home > Weather > Roanoke > Past weeks

Flag for U.S.A. Weather for the Past 2 Weeks in Roanoke, Virginia, U.S.A.

Now
34 °F

Clear.


Feels Like: 28 °F
Forecast: 29 / 38 °F
Wind: 7 mph from Northwest

Location: Roanoke Regional Airport

Current Time: Feb 8, 2016 at 9:28:23 PM

Latest Report: Feb 8, 2016 at 8:54 PM


Visibility: 10 mi

Pressure: 29.69 "Hg

Humidity: 88%

Dew point: 31 °F

Location of RoanokeLocation

Historic Weather in Roanoke — Graph

°F

Roanoke Temperature Yesterday

Maximum temperature yesterday: 47 °F (at 3:54 PM)
Minimum temperature yesterday: 26 °F (at 4:54 AM)
Average temperature yesterday: 35 °F

High & Low Weather Summary for the Past Weeks

 TemperatureHumidityPressure
High63 °F (Feb 1, 2:54 PM)100% (Feb 2, 12:54 AM)30.47 "Hg (Feb 2, 12:54 AM)
Low21 °F (Jan 28, 6:54 AM)27% (Feb 5, 2:54 PM)29.65 "Hg (Jan 29, 3:54 AM)
Average39 °F67%30.08 "Hg
* Reported Jan 24 7:54 PM — Feb 8 7:54 PM, Roanoke, Weather by CustomWeather, © 2016

Note: Actual official high and low records may vary slightly from our data, if they occured in-between our weather recording intervals... More about our weather records

Advertising

Roanoke Weather History for the Previous 24 Hours

 ConditionsComfort  
Time TempWeatherWind HumidityBarometerVisibility
7:54 PM
Mon, Feb 8
35 °FMostly cloudy.3 mph96%29.71 "Hg10 mi
6:54 PM37 °FOvercast.No wind89%29.68 "Hg10 mi
5:54 PM37 °FOvercast.No wind89%29.67 "Hg10 mi
4:54 PM38 °FLight rain. Fog.5 mph90%29.68 "Hg5 mi
3:54 PM40 °FLight rain. Overcast.7 mph83%29.67 "Hg10 mi
2:54 PM41 °FLight rain. More clouds than sun.10 mph74%29.67 "Hg6 mi
1:54 PM44 °FOvercast.9 mph51%29.66 "Hg10 mi
12:54 PM42 °FOvercast.9 mph55%29.70 "Hg10 mi
11:54 AM40 °FMostly cloudy.3 mph60%29.74 "Hg10 mi
10:54 AM37 °FPartly sunny.3 mph67%29.78 "Hg10 mi
9:54 AM35 °FScattered clouds.No wind72%29.79 "Hg10 mi
8:54 AM31 °FPartly sunny.No wind79%29.78 "Hg10 mi
7:54 AM27 °FPassing clouds.No wind85%29.82 "Hg10 mi
6:54 AM27 °FPassing clouds.5 mph85%29.82 "Hg10 mi
5:54 AM26 °FClear.No wind84%29.81 "Hg10 mi
4:54 AM29 °FClear.5 mph79%29.81 "Hg10 mi
3:54 AM27 °FClear.No wind85%29.82 "Hg10 mi
2:54 AM29 °FClear.3 mph82%29.83 "Hg10 mi
1:54 AM27 °FClear.3 mph85%29.85 "Hg10 mi
12:54 AM31 °FClear.No wind76%29.87 "Hg10 mi
11:54 PM
Sun, Feb 7
32 °FClear.No wind75%29.89 "Hg10 mi
10:54 PM32 °FPassing clouds.No wind75%29.91 "Hg10 mi
9:54 PM34 °FPassing clouds.3 mph67%29.93 "Hg10 mi
Weather by CustomWeather, © 2016

See weather overviewHow to use our weather pages